Weather History for San Jose, Costa Rica

Change the Weather History Date:

Saturday, July 12, 2014

  Actual Average Record
Temperature  
Mean Temperature 72 °F -  
Max Temperature 77 °F 80 °F 86 °F (2006)
Min Temperature 68 °F 65 °F 64 °F (1999)
Cooling Degree Days 8    
Growing Degree Days 22 (Base 50)    
Moisture  
Dew Point 62 °F    
Average Humidity 68    
Maximum Humidity 83    
Minimum Humidity 50    
Precipitation  
Precipitation 0.04 in 0.29 in - ()
Sea Level Pressure  
Sea Level Pressure 29.93 in    
Wind  
Wind Speed 12 mph ()    
Max Wind Speed 24 mph    
Max Gust Speed 25 mph    
Visibility 8.1 miles    
Events Rain    
Averages and records for this station are not official NWS values.
T = Trace of Precipitation, MM = Missing Value Source: Averaged Metar Reports

Daily Weather History Graph

Daily Weather History Graph

Search for Another Location

Airport:

Trip Planner

Search our weather history database for the weather conditions in past years. The results will help you decide how hot, cold, wet, or windy it might be!

Date:

Astronomy

Jul. 12, 2014 Rise Set
Actual Time 5:22 AM CST 6:02 PM CST
Civil Twilight 4:59 AM CST 6:25 PM CST
Nautical Twilight 4:32 AM CST 6:51 PM CST
Astronomical Twilight 4:05 AM CST 7:19 PM CST
Moon 6:22 PM CST (7/12) 5:26 AM CST (7/12)
Length of Visible Light 13h 25m
Length of Day
12h 39m
Full, 100% of the Moon is Illuminated
Jul 12
Full
Jul 18
Last Quarter
Jul 26
New
Aug 3
First Quarter
Aug 10
Full

Hourly Weather History & Observations

Time (CST) Temp. Dew Point Humidity Pressure Visibility Wind Dir Wind Speed Gust Speed Precip Events Conditions
12:00 AM 72 °F 62 °F 64% 29.82 in 12 mi ESE 18.4 mph - -   Scattered Clouds
12:00 AM 71.6 °F 62.6 °F 73% 29.97 in 6.2 mi ESE 18.4 mph - N/A   Scattered Clouds
1:00 AM 71.6 °F 64.4 °F 78% 29.96 in 6.2 mi NE 12.7 mph - N/A   Scattered Clouds
2:00 AM 69.8 °F 64.4 °F 83% 29.94 in 6.2 mi East 10.4 mph 21.9 mph N/A Rain Rain
3:00 AM 69 °F 64 °F 81% 29.79 in 12 mi East 6.9 mph - -   Scattered Clouds
3:00 AM 69.8 °F 64.4 °F 83% 29.92 in 6.2 mi East 6.9 mph - N/A   Partly Cloudy
4:00 AM 69.8 °F 64.4 °F 83% 29.91 in 6.2 mi ENE 12.7 mph - N/A   Mostly Cloudy
5:00 AM 71.6 °F 64.4 °F 78% 29.94 in 6.2 mi North 13.8 mph - N/A   Mostly Cloudy
6:00 AM 72 °F 61 °F 61% 29.83 in 12 mi East 15.0 mph - -   Overcast
6:00 AM 71.6 °F 60.8 °F 69% 29.96 in 6.2 mi East 15.0 mph - N/A   Mostly Cloudy
7:00 AM 69.8 °F 62.6 °F 78% 29.97 in 6.2 mi East 13.8 mph 25.3 mph N/A Rain Rain
8:00 AM 71.6 °F 62.6 °F 73% 30.00 in 6.2 mi East 11.5 mph - N/A Rain Rain
9:00 AM 71 °F 61 °F 63% 29.89 in 9 mi East 11.5 mph - - Rain Light Drizzle
9:00 AM 71.6 °F 60.8 °F 69% 30.03 in 6.2 mi East 11.5 mph - N/A   Light Drizzle
10:00 AM 75.2 °F 60.8 °F 61% 30.01 in 6.2 mi East 11.5 mph - N/A   Mostly Cloudy
11:00 AM 73.4 °F 62.6 °F 69% 30.00 in 6.2 mi East 11.5 mph 23.0 mph N/A   Light Drizzle
12:00 PM 74 °F 60 °F 53% 29.81 in 12 mi ESE 24.2 mph - - Rain Light Drizzle
12:00 PM 73.4 °F 60.8 °F 65% 29.95 in 6.2 mi East 12.7 mph 24.2 mph N/A   Light Drizzle
1:00 PM 77.0 °F 57.2 °F 50% 29.95 in - East 13.8 mph - N/A   Clear
2:00 PM 75.2 °F 60.8 °F 61% 29.95 in 6.2 mi ESE 12.7 mph - N/A   Mostly Cloudy
3:00 PM 75 °F 61 °F 52% 29.79 in 12 mi East 13.8 mph - -   Scattered Clouds
3:00 PM 75.2 °F 60.8 °F 61% 29.93 in 6.2 mi East 13.8 mph - N/A   Mostly Cloudy
4:00 PM 75.2 °F 60.8 °F 61% 29.90 in - East 13.8 mph - N/A   Clear
5:00 PM 75.2 °F 59.0 °F 57% 29.91 in - East 13.8 mph 25.3 mph N/A   Clear
6:00 PM 73 °F 61 °F 57% 29.81 in 12 mi ENE 9.2 mph - -   Mostly Cloudy
6:00 PM 73.4 °F 60.8 °F 65% 29.94 in - ENE 9.2 mph - N/A   Clear
7:00 PM 73.4 °F 60.8 °F 65% 29.95 in - ESE 11.5 mph - N/A   Clear
8:00 PM 71.6 °F 60.8 °F 69% 29.98 in - NNE 6.9 mph - N/A   Clear
9:00 PM 70 °F 62 °F 67% 29.86 in 12 mi East 3.5 mph - -   Overcast
9:00 PM 69.8 °F 60.8 °F 73% 29.99 in - East 3.5 mph - N/A   Clear
10:00 PM 71.6 °F 60.8 °F 69% 30.00 in - ENE 6.9 mph - N/A   Clear
11:00 PM 69.8 °F 60.8 °F 73% 29.99 in - NE 8.1 mph - N/A   Clear